Preview of NWS' New Version of Forecast
This preview is not operational and should not be used for support decisions.

Regional Weather Roundup (RWR)

Issued by National Weather Service (NWS)

                            
000
ASUS42 KTBW 170615
RWRFL 
FLORIDA REGIONAL WEATHER ROUNDUP
NATIONAL WEATHER SERVICE TAMPA BAY RUSKIN FL
200 AM EDT WED APR 17 2019

NOTE: "FAIR" INDICATES FEW OR NO CLOUDS BELOW 12,000 FEET WITH NO
SIGNIFICANT WEATHER AND/OR OBSTRUCTIONS TO VISIBILITY.

FLZ001>010-012>015-112-114-115-170700-
PANHANDLE FLORIDA
  
CITY           SKY/WX    TMP DP  RH WIND       PRES   REMARKS
PENSACOLA      FAIR      62  59  90 CALM      30.12F                  
PENSACOLA NAS  FAIR      56  55  97 CALM      30.12F                  
MILTON NAS     FAIR      52  51  97 E3        30.13F                  
CRESTVIEW      FAIR      50  47  89 CALM      30.15F                  
DUKE FIELD     FAIR      50  47  90 CALM      30.13F                  
VALPARAISO     FAIR      55  50  84 CALM      30.12F                  
MARY ESTHER    PTCLDY    55  51  88 N5        30.11F                  
PANAMA CITY    FAIR      54  52  93 NW5       30.13S                  
TYNDALL AFB    FAIR      58  54  88 N3        30.12F                  
APALACHICOLA   FAIR      53  49  86 NE5       30.11F                  

STATION/POSITION SKY/WX   TEMP    WIND        PRES    WAVE   SWELL
                          AIR SEA DIR/SP/G            HT/PER HT/PER
                          (F)     (DEG/KT/KT) (MB)    (FT/S) (FT/S)
30.1N   87.6W                                 1020.2F   1/ 4
29.2N   88.2W                     140/ 12/ 16 1019.9F   3/ 5
PANAMA CITY BEAC           64 70  350/  5/  6 1020.7F
TOWER C          NOT AVBL

$$
FLZ011-016>038-118-127-128-134-139-239-170700-
NORTH FLORIDA
  
CITY           SKY/WX    TMP DP  RH WIND       PRES   REMARKS
MARIANNA       FAIR      58  50  75 CALM      30.13F                  
TALLAHASSEE    FAIR      54  50  86 CALM      30.14S                  
PERRY          FAIR      62  58  84 E6        30.15F                  
LIVE OAK       MOCLDY    59  59 100 CALM      30.15F                  
CROSS CITY     FAIR      55  52  91 CALM      30.15F                  
LAKE CITY      FAIR      59  55  88 CALM      30.15F                  
GAINESVILLE    FAIR      60  56  86 CALM      30.17F                  
PALATKA        FAIR     N/A N/A N/A CALM      30.15F                  
MAYPORT NAS    FAIR      64  62  93 CALM      30.15F                  
JACKSONVILLE   FAIR      57  55  93 CALM      30.15F                  
JAX NAS        MOCLDY    67  60  78 N6        30.16F                  
JAX CECIL      FAIR      52  50  93 CALM      30.16S                  
FERNANDINA BEA FAIR      63  60  91 E6        30.16S                  
ST AUGUSTINE   MOCLDY    62  60  93 NW3       30.16F                  
PALM COAST     FAIR      59  58  96 CALM      30.14F                  

STATION/POSITION SKY/WX   TEMP    WIND        PRES    WAVE   SWELL
                          AIR SEA DIR/SP/G            HT/PER HT/PER
                          (F)     (DEG/KT/KT) (MB)    (FT/S) (FT/S)
SHELL POINT      NOT AVBL
KEATON BEACH               61      80/  8/  9 1020.6F
CEDAR KEY                  68      80/  9/ 10 1020.6F
FERNANDINA                         70/  3/  5   N/A
30.7N   81.3W                 67                N/A     2/ 7
MAYPORT                    66 69  340/  1/  2 1021.2F
31.4N   80.9W              66 66  110/  6/  8 1021.7F   3/ 8   2/ 8
ST AUGUSTINE               71 69  110/  9/  9 1020.9F

$$
FLZ040-043>046-052-053-057-058-063-144-170700-
INTERIOR CENTRAL FLORIDA
  
CITY           SKY/WX    TMP DP  RH WIND       PRES   REMARKS
OCALA          FAIR      62  58  86 CALM      30.15F                  
LEESBURG       FAIR      62  59  90 NE5       30.15F                  
SANFORD        FAIR      63  59  87 CALM      30.14F                  
ORLANDO EXEC   FAIR      66  58  75 NE6       30.14F                  
ORLANDO INTL   FAIR      66  57  72 E5        30.14F                  
KISSIMMEE      FAIR      67  60  78 CALM      30.15F                  
WINTER HAVEN   FAIR      67  60  78 E8        30.14F                  
LAKELAND       FAIR      64  57  77 CALM      30.14F                  
BARTOW         FAIR      61  59  94 CALM      30.13F                  
SEBRING        FAIR      61  58  90 NE5       30.12F                  
OKEECHOBEE     FAIR      57  55  94 CALM      30.12F                  

$$
FLZ041-047-054-059-064-141-147-170700-
EAST CENTRAL FLORIDA
  
CITY           SKY/WX    TMP DP  RH WIND       PRES   REMARKS
DAYTONA BEACH  FAIR      62  61  96 CALM      30.14F                  
DELAND         FAIR      61  57  88 CALM      30.14F                  
JFK SPACE CTR  MOCLDY    61  58  88 CALM      30.12F                  
CAPE CANAVERAL FAIR      67  56  66 E6        30.11F                  
PATRICK AFB    FAIR      74  59  60 E9        30.11F                  
MELBOURNE      FAIR      74  59  59 E8        30.11F                  
VERO BEACH     FAIR      72  60  66 E6        30.11F                  
FT PIERCE      FAIR      70  59  68 E6        30.11F                  
STUART         FAIR      72  57  60 E7        30.12F                  

STATION/POSITION SKY/WX   TEMP    WIND        PRES    WAVE   SWELL
                          AIR SEA DIR/SP/G            HT/PER HT/PER
                          (F)     (DEG/KT/KT) (MB)    (FT/S) (FT/S)
28.5N   80.2W              75      90/ 10/ 14 1020.4F   3/ 7   2/ 7
28.9N   78.5W              74 77   70/ 10/ 14 1020.6F   4/ 8   3/ 8
TRIDENT PIER               72 77   70/  5/ 10 1021.3F
28.4N   80.5W                 76                N/A     2/ 7
27.5N   80.2W                 75                N/A     3/ 8

$$
FLZ050-056-061-142-242-148-248-149-249-151-251-155-255-
160-260-170700-
WEST CENTRAL FLORIDA
  
CITY           SKY/WX    TMP DP  RH WIND       PRES   REMARKS
CRYSTAL RIVER  FAIR      63  57  82 CALM      30.14F                  
INVERNESS      FAIR      59  59 100 CALM      30.15F                  
BROOKSVILLE    FAIR      58  55  90 CALM      30.14F                  
CLEARWATER AIR FAIR      68  57  68 E8        30.12F                  
ST PETE CLEARW FAIR      69  59  70 E12       30.12F                  
TAMPA INTL     FAIR      71  57  61 VRB5      30.13F                  
TAMPA EXEC     FAIR      59  55  88 CALM      30.14F                  
PLANT CITY     FAIR      64  61  88 E3        30.15F                  
MACDILL AFB    FAIR      68  58  72 E9        30.12F                  
PETER O KNIGHT MOCLDY    68  61  77 E3        30.13F                  
ST PETERSBURG  FAIR      71  61  70 E12       30.11F                  
SARASOTA       FAIR      67  58  72 E8        30.10F                  
VENICE         FAIR      68  61  77 E7        30.12F                  

STATION/POSITION SKY/WX   TEMP    WIND        PRES    WAVE   SWELL
                          AIR SEA DIR/SP/G            HT/PER HT/PER
                          (F)     (DEG/KT/KT) (MB)    (FT/S) (FT/S)
27.3N   84.2W                 75                N/A     2/ 4
CLEARWATER BEACH           72 77  110/  9/ 14 1019.9F
MIDDLE TAMPA BAY           70     110/ 12/ 15 1019.9F
VENICE                     69 78  100/  5/  7 1019.4F

$$
FLZ066-069-070-075>078-162-262-165-265-170700-
SOUTHWEST FLORIDA AND KEYS
  
CITY           SKY/WX    TMP DP  RH WIND       PRES   REMARKS
PUNTA GORDA    FAIR      64  58  80 SE3       30.13F                  
FT MYERS       FAIR      66  61  84 E5        30.10F                  
SOUTHWEST INTL FAIR      66  60  81 E5        30.11F                  
NAPLES         FAIR      70  65  84 E8        30.10F                  
MARCO ISLAND   FAIR      68  62  81 E5        30.11                   
IMMOKALEE      MOCLDY    61  57  88 CALM      30.09F                  
MARATHON       FAIR      78  60  53 E8        30.08F                  
KEY WEST NAS   FAIR      76  64  66 E12       30.08F                  
KEY WEST INTL  FAIR      76  65  68 E7        30.08F                  

STATION/POSITION SKY/WX   TEMP    WIND        PRES    WAVE   SWELL
                          AIR SEA DIR/SP/G            HT/PER HT/PER
                          (F)     (DEG/KT/KT) (MB)    (FT/S) (FT/S)
NAPLES                     72 80   80/  6/ 11 1019.4F
DRY TORTUGAS               77     110/ 15/ 18 1018.2F
SAND KEY                   76                 1018.6F
SOMBRERO KEY               76                 1018.0F

$$
FLZ067-068-071>074-168-172>174-170700-
SOUTHEAST FLORIDA 
  
CITY           SKY/WX    TMP DP  RH WIND       PRES   REMARKS
W PALM BEACH   FAIR      74  58  57 E12       30.11F                  
FT LAUDER-EXEC FAIR      73  59  61 E7        30.10F                  
FT LAUDERDALE  FAIR      74  59  59 E8        30.09F                  
POMPANO BEACH  MOCLDY    75  59  57 E8        30.10F                  
PEMBROKE PINES FAIR      71  59  65 NE6       30.11F                  
OPA LOCKA      MOCLDY    73  61  65 NE5       30.10F                  
MIAMI          FAIR      74  59  59 NE7       30.10F                  
WEST KENDALL   FAIR      68  59  73 E6        30.09F                  
HOMESTEAD      FAIR      74  63  69 NE8       30.08F                  

STATION/POSITION SKY/WX   TEMP    WIND        PRES    WAVE   SWELL
                          AIR SEA DIR/SP/G            HT/PER HT/PER
                          (F)     (DEG/KT/KT) (MB)    (FT/S) (FT/S)
PORT EVERGLADES            76      70/  8/ 13 1019.3F
VIRGINIA KEY               75 83   30/ 10/ 13 1018.6F
LAKE WORTH                 74 78   80/ 12/ 15 1020.8F
SETTLEMENT POINT           74      80/ 12/ 16 1019.7F

$$